Location: Avully
(45.9633°N, 6.0228°E)
Time: 03:52:17
(UTC+00:00)

Cosmos 1455 - Pass Details

Date: 23 May 2024
Orbit: 445 x 460 km, 82.5° (Epoch: 17 June)

Event Time Altitude Azimuth Distance (km) Brightness Sun altitude
Rises 02:01:42 0° 335° (NNW) 2,459 6.1 -15.3°
Reaches altitude 10° 02:04:14 10° 316° (NW) 1,583 4.8 -15.1°
Maximum altitude 02:06:37 18° 272° (W) 1,183 3.7 -14.8°
Enters shadow 02:06:46 18° 268° (W) 1,185 3.7 -14.8°
